Overview Statistics Trail Chart Weather Telemetry Raw packets
 

This is the latest recevied weather packets stored in our database for station/object OE5MMP-13. If no packets are shown the sender has not sent any weather packets the latest 10 day(s).

<< 29 30 31 32 33 34 35 >>
Time Temp. Humidity Pressure Rain* Wind** Luminosity Snow
1788242611 17.22° C 70% 1022.4 hPa 0 mm - 224 W/m² -
1788242011 16.67° C 71% 1022.3 hPa 0 mm - 83 W/m² -
1788241430 16.67° C 70% 1022.5 hPa 0 mm - 77 W/m² -
1788240811 16.67° C 70% 1022.4 hPa 0 mm - 93 W/m² -
1788240212 16.67° C 71% 1022.4 hPa 0 mm - 74 W/m² -
1788239611 16.11° C 73% 1022.4 hPa 0 mm - 86 W/m² -
1788239011 16.11° C 72% 1022.2 hPa 0 mm - 29 W/m² -
1788238411 16.11° C 72% 1022.2 hPa 0 mm - 26 W/m² -
1788237811 15.56° C 73% 1022.2 hPa 0 mm - 16 W/m² -
1788237211 15.56° C 74% 1022.2 hPa 0 mm - 11 W/m² -
1788236610 15.56° C 74% 1022.2 hPa 0 mm - 5 W/m² -
1788236011 15.56° C 74% 1022.3 hPa 0 mm - 0 W/m² -
1788235410 15.56° C 74% 1022.4 hPa 0 mm - 0 W/m² -
1788234811 15.56° C 73% 1022.4 hPa 0 mm - 0 W/m² -
1788234211 16.11° C 73% 1022.4 hPa 0 mm - 0 W/m² -
1788233610 16.11° C 72% 1022.5 hPa 0 mm - 0 W/m² -
1788233011 16.11° C 72% 1022.5 hPa 0 mm - 0 W/m² -
1788232410 16.11° C 72% 1022.5 hPa 0 mm - 0 W/m² -
1788231810 16.11° C 72% 1022.5 hPa 0 mm - 0 W/m² -
1788231210 16.11° C 72% 1022.5 hPa 0 mm - 0 W/m² -
1788230610 16.11° C 72% 1022.6 hPa 0 mm - 0 W/m² -
1788230010 16.11° C 72% 1022.5 hPa 0 mm - 0 W/m² -
1788229410 16.11° C 72% 1022.5 hPa 0 mm - 0 W/m² -
1788228816 15.56° C 73% 1022.3 hPa 0 mm - 0 W/m² -
1788228210 15.56° C 73% 1022.3 hPa 0 mm - 0 W/m² -

* Rain latest hour (hover to see other rain measurements)
** Current wind speed in m/s (hover to see current wind gust speed)